[Date Prev][Date Next][Thread Prev][Thread Next][Date Index][Thread Index]

[jamsat-news:1461] jas2info #221


========================   最新情報   ==============================

        Last updated :Sat.14APR2001  14:10 (JST) #221
        
====================================================================
   
  1)アマチュア通信衛星情報、FOシリーズの軌道要素、テレメトリ、QSOの
   状況等をまとめてみました.
   
   FO−29の2001年4月14日(土)の10:52(JST)のパスでは
  JARLのホームページのとうりアナログ運用でした。観測したテレメトリーと
  分析結果を掲載しておきます.

AS22998C1  Sat.14APR2001
10:52-11:05(JST)
Freq.435.801-.790MHz
 
HI HI AE C7 88 55 00 D4 D9 BD 09 02 4D 83 7F 60 91 90 B0 6A AF AE B0 AF AD 
HI HI AE C7 88 55 00 D4 D9 BD 09 02 4A 80 81 60 91 90 B0 73 AF AE B1 AF AD 
HI HI AE C7 88 55 00 D4 D9 BD 09 02 45 80 80 60 92 90 B0 67 AF AD B0 AF AD 
HI HI AE C7 88 55 00 D4 D9 BD 09 02 48 79 80 60 91 90 B0 7E AF AD B0 AF AD 
HI HI AE C7 88 55 00 D4 D9 BD 09 02 4A 78 85 60 92 91 AF 71 AF AD B0 AF AD 
HI HI AE C7 88 55 00 D4 D9 BD 09 02 48 7A 88 60 92 91 B0 7B AF AD B0 AF AD 
HI HI AE C7 88 55 00 D4 D9 BD 09 02 51 7B 8B 60 92 91 B1 68 AF AD B0 AF AD 
HI HI AE C7 88 55 00 D4 D9 BD 09 02 56 81 88 60 92 91 B0 7B AF AD B0 AF AD 
HI HI AE C7 88 55 00 D4 D9 BD 09 02 62 93 7F 60 92 91 B0 80 AE AD B0 AF AD 
HI HI AE C7 88 55 00 D4 D9 BD 09 02 56 9E 7A 60 93 91 B0 6E AE AC B0 AF AD 
HI HI AE C7 88 55 00 D4 D9 BD 09 02 59 A7 75 60 93 91 B0 82 AE AC B0 AF AD 
HI HI AE C7 88 55 00 D4 D9 BD 09 02 6A AF 72 60 93 91 B0 85 AE AC B0 AF AD
HI HI AE C7 88 55 02 D4 D9 DD 09 02 69 AE 69 60 93 91 B0 6D AE AC B0 AE AD 
HI HI AE C7 88 55 00 D4 D9 BD 09 02 63 AD 57 60 93 91 B0 95 AE AC AF AE AD 
HI HI AE C7 88 55 00 D4 D9 BD 09 02 5F A2 55 60 93 91 B0 80 AD AC AF AE AD 
HI HI AE C7 88 55 00 D4 D9 B0 09 95 5B 93 54 60 93 91 B0 82 AD AC AF AE AD 
 
AS22997C1  Sat14APR2001
9:03-9:21(JST)
Freq.435.804-.787MHz

HI HI AE C7 88 55 00 D4 D9 BD 09 02 5D 41 6D 5F 91 8F B0 7D B0 AE AF B0 AD 
HI HI AE C7 88 55 00 D4 D9 BD 09 02 57 46 67 5F 91 8F B0 A9 B0 AE AF B0 AD 
HI HI AE C7 88 55 00 D4 D9 BD 09 02 54 4C 63 5F 91 8F B0 69 AF AE AF B0 AD 
HI HI AE C7 88 55 00 D4 D9 BD 09 02 54 50 5F 5F 91 90 B0 64 AF AE AF AF AD 
HI HI AE C7 88 55 00 D4 D9 BD 09 02 57 54 62 60 91 90 B0 82 AF AD AF AF AD 
HI HI AE C7 88 55 00 D4 D9 BD 09 02 5C 55 67 60 91 90 B0 AE AF AE AF AF AD 
HI HI AE C7 88 55 00 D4 D9 BD 09 02 61 54 6A 60 91 90 B0 70 AF AD AF AF AD 
HI HI AE C7 88 55 00 D4 D9 BD 09 02 66 50 73 60 91 90 B0 8B AF AD AF AF AD 
HI HI AE C7 88 55 00 D4 D9 BD 09 02 6C 4B 78 60 92 90 B0 7B AF AD AF AF AD 
HI HI AE C7 88 55 00 D4 D9 BD 09 02 6F 44 7B 60 92 90 B0 6A AF AD AF AF AD 
HI HI AE C7 88 55 00 D4 D9 BD 09 02 6F 3D 7A 60 92 90 B0 7D AF AD AF AF AD 
HI HI AE C7 88 55 00 D4 D9 BD 09 02 6F 3D 7A 60 92 90 B0 7B AF AD AF AF AD 
HI HI AE C7 88 55 00 D4 D9 BD 09 02 6F 34 7D 60 92 91 B0 6A AF AD AF AF AD 
HI HI AE C7 88 55 00 D4 D9 BD 09 02 5D 32 82 60 92 91 B0 86 AF AD AF AF AD 
HI HI AE C7 88 55 00 D4 D9 BD 09 02 53 35 80 60 92 91 B0 76 AF AD AE AF AD 
HI HI AE C7 88 55 00 D4 D9 BD 09 02 47 3D 7E 60 92 91 B0 8B AF AC AE AF AD 
HI HI AE C7 88 55 00 D4 D9 BD 09 02 3C 47 7E 60 93 91 B0 83 AF AC AE AF AD 
HI HI AE C7 88 55 00 D4 D9 BD 09 02 34 55 82 60 93 91 B0 87 AF AC AE AF AD 
HI HI AE C7 88 55 00 D4 D9 BD 09 02 2E 65 84 60 93 91 B0 8B AE AC AE AF AD 
HI HI AE C7 88 55 00 D4 D9 BD 09 02 2C 77 85 60 93 91 B0 82 AE AC AD AE AD 
HI HI AE C7 88 55 00 D4 D9 BD 09 02 2A 87 85 60 93 91 B0 7B AE AC AD AE AD 
HI HI AE C7 88 55 00 D4 D9 BD 09 02 35 97 7C 60 93 91 B0 7A AE AC AD AE AD 
HI HI AE C7 88 55 00 D4 D9 BD 09 02 40 A4 73 60 93 91 B0 79 AE AC AD AE AD 
HI HI AE C7 88 55 00 D4 D9 BD 09 02 4F AC 6F 60 93 92 B0 83 AE AB AD AE AD 
HI HI AE C7 88 55 00 D4 D9 BD 09 02 5F B0 74 60 93 91 B0 72 AE AB AD AE AD 
HI HI AE C7 88 55 00 D4 D9 BD 09 02 72 B0 6F 60 93 91 B0 63 AE AB AD AE AD 
HI HI AE C7 88 55 00 D4 D9 BD 09 02 83 AC 6B 60 93 91 B0 7E AE AB AD AE AD 
 
 ------------------------ FO-29の軌道要素 ------------------------------        
 
  ■ 軌道要素1:「jamsat−keps:1092」より         
          SB KEPS @ AMSAT  $ORB01102.N
          2Line Orbital Elements 01102.AMSAT

HR AMSAT ORBITAL ELEMENTS FOR AMATEUR SATELLITES IN NASA FORMAT
FROM WA5QGD FORT WORTH,TX April 12, 2001
SEND SUBSCRIBE/UNSUBSCRIBE TO majordomo@amsat.org ONLY
BID: ORB01102.N

 DECODE 2-LINE ELSETS WITH THE FOLLOWING KEY:
 1 AAAAAU 00  0  0 BBBBB.BBBBBBBB  .CCCCCCCC  00000-0  00000-0 0  DDDZ
 2 AAAAA EEE.EEEE FFF.FFFF GGGGGGG HHH.HHHH III.IIII JJ.JJJJJJJJKKKKKZ
 KEY: A-CATALOGNUM B-EPOCHTIME C-DECAY D-ELSETNUM E-INCLINATION F-RAAN
 G-ECCENTRICITY H-ARGPERIGEE I-MNANOM J-MNMOTION K-ORBITNUM Z-CHECKSUM

FO-29
1 24278U 96046B   01101.63437347  .00000092  00000-0  12930-3 0 04217
2 24278 098.5568 335.8623 0351254 174.1718 186.3669 13.52767955229647

 ■ 軌道要素2:「jamsat−keps:1093」より                     

        SB KEPS @ AMSAT  $ORB01102.O
        Orbital Elements  01102.OSCAR

HR AMSAT ORBITAL ELEMENTS FOR OSCAR SATELLITES
FROM WA5QGD FORT WORTH,TX April 12, 2001
SEND SUBSCRIBE/UNSUBSCRIBE TO majordomo@amsat.org ONLY
BID: ORB01102.O
TO ALL RADIO AMATEURS BT
 
Satellite: FO-29
Catalog number: 24278
Epoch time:      01101.63437347
Element set:    0421
Inclination:      098.5568 deg
RA of node:       335.8623 deg
Eccentricity:    0.0351254
Arg of perigee:   174.1718 deg
Mean anomaly:     186.3669 deg
Mean motion:   13.52767955 rev/day
Decay rate:        9.2e-07 rev/day^2
Epoch rev:           22964
Checksum:              335

-------------------  FO-29(JAS-2)のテレメトリに関する情報  ---------------------- 
 
2)上記テレメトリー4月14日(土)のテレメトリ最終行を分析しておきます.

AS22998C1  Sat.14APR2001
10:52-11:05(JST)
Freq.435.801-.790MHz
 
HI HI AE C7 88 55 00 D4 D9 B0 09 95 5B 93 54 60 93 91 B0 82 AD AC AF AE AD  

テレメトリ   内 容       換算算値 単 位  
3C	磁気センサーZ軸=	44607.8	[nT]
3D	磁気センサX軸	=	72058.8	[nT]
4A	太陽電池発生電流=	 823.5	[mA]
4B	B充放電電流	=	 -118.4	[mA]
4C	B端子電圧	=	   15.8	[V]
4D	B中間端子電圧	=	    7.0	[V]
5A	バス電圧	=	   17.3	[V]
5B	JTA送信電力	=	  746.9	[mW]
5C 	構体温度1	=	   14.7	[℃]
5D	構体温度2	=	   15.1	[℃]
6A	構体温度3	=	   13.9	[℃]
6B	構体温度4	=	   14.3	[℃]
6C	Bセル温度	=	   14.7	[℃]
   	
 ===========================  FO-29(ふじ3号)のQSO情報等 ======================
   
 3)[jamsat-bb:

 ===============================================================================
   4)JARL のホームページに運用予定が記載されていましたのでご紹介します.
       ( http://www.jarl.or.jp/Japanese/3_Fuji/new/uy.htm )

        ■ ふじ3号/FOー29/JAS-2 ■  
   
     *** 運用予定について ***

     4月2日 〜 7月2日 アナログ系運用

  *なお,運用予定は都合により変更することがありますので予めご了承願います。

 照会先 : lab@jarl.or.jp

 最新の情報はテレホンサービス(03−3942−1000)をお聞きください。  
 以後の運用につきましては平成13年7月上旬にお知らせ致します。    
    
-----------------------    FO−20(JAS-1b)道要素   -------------------------
  5)
  ■ 軌道要素1 :出典はFO-29「ふじ3号」に同じ.
  
FO-20
1 20480U 90013C   01101.74804949  .00000019  00000-0  10653-3 0 03155
2 20480 099.0662 182.5794 0540684 099.5311 266.7279 12.83292082523577
 
  ■ 軌道要素2 :出典はFO−29「ふじ3号」に同じ.
               
Satellite: FO-20
Catalog number: 20480
Epoch time:      01101.74804949
Element set:    0315
Inclination:      099.0662 deg
RA of node:       182.5794 deg
Eccentricity:    0.0540684
Arg of perigee:   099.5311 deg
Mean anomaly:     266.7279 deg
Mean motion:   12.83292082 rev/day
Decay rate:        1.9e-07 rev/day^2
Epoch rev:           52357
 
 --------------------------------------------------------------------------------
 
         ■ ふじ2号/FO−20/JAS-1b ■      
            
          「ふじ2号」 現況                                                                                  
             
   JAS-1b(ふじ2号)のCWテレメトリ信号に,1997年10月12日12時(JST)の
 日本上空通過時,3桁の数字が繰り返されるはずが3個の長音の繰り返しとなっているという
 異常が発見されました。この不具合は次の通過時からは回復していましたが13日15時20分の
 通過時に再び観測されました。現在はA0の送信が続いています。衛星のアナログ系中継モード
 動作は異常が無く,正常時のテレメトリ内容からは衛星の動作に異常は認められません。従って,
 直ちに衛星のミッションに影響することは無いと予想されますので,当面はアナログ系中継
 モードを継続します。衛星は既に打ち上げてから7年8ヶ月を経ておりますので,今後は監視を
 強化する予定です。アマチュア各位のレポートをお待ちします。
 -------------------------------------------------------------------------------- 
  1997年10月14日 00時35分 確認のテレメトリ音 151 KB (A0) 
  1997年10月14日 11時10分 確認のテレメトリ音 216 KB (異常キーイング) 

  以上 JARLのホ−ムページの http://www.jarl.or.jp/Japanese/3_Fuji/new/fuji.htm

===================== FO-20 ふじ2号 のテレメトリ観測結果 ====================

   12月22日(金)の12:21(JST)のパスの観測結果では以前観測した
 単一周波数のドップラー効果で周波数がずれていくのみの状態に戻っておりました。
                                         
   =============   JAS-2 (ふじ3号)と現在までの情報   ===========
  
  A.電話によるふじ3号の運用情報
      社団法人日本アマチュア連盟によるサービス
           TEL .   03− 3942 − 1000
  B.アマチュア無線FAXサービス
      JARLによるふじ3号の軌道情報(オービットカレンダー)
         FAX No.  03− 3233 −0055
  C.WWWブラウザで情報を簡単に見れる人のためにJAS−2
     ふじ3号の衛星としての運用されるまでの名前)の概要、打ち上げ
     までの状況、運用中における状況を説明したホームページを紹介し
     ておきます.
     社団法人日本アマチュア無線連盟(JARL)のホームページ

          http://www.jarl.or.jp/Japanese/3_Fuji/jasmenu.htm
 
     宇宙開発事業団(NASDA)ホームページ 
          http://www.nasda.go.jp/
         打上げ衛星 :地球観測プラットフォーム技術衛星(ADEOS) 
                       アマチュア衛星3号(JAS-2)
          http://yyy.tksc.nasda.go.jp/Home/Press/Press-j/jas-2_j.html        

  D.JAMSATによる軌道情報の活用
        JAMSATのホームページまたはjamsat−kepsの軌道要素より
      衛星の軌道情報を得る.
     JAMSATホームページ
               URL    http://www.jamsat.or.jp
       上記ホームページでは各地で行われるアマチュア通信衛星に関する
      ミューティングのお知らせや世界のアマチュア衛星に関する情報が
      満載されています.
 ========================================================================  
     JAMSATのメンバーのご協力によりJH6MME(高山 秀造)が
    執筆・編集を担当しております.ご指摘の意見、疑問やこのようにしたら
    というアイデアがありましたら小さなことでもかまいませんので気軽に下
    記アドレスまでご連絡ください.jamsat−newsからjas2
    infoへの転載をJH4PHW局坂井さんに担当して頂いております.  
                  E-mail : jh6mme@jamsat.or.jp : jh4phw@jamsat.or.jp
 ===============================   END  ===============================